Location: Unspecified
(44.4377°N, 88.0525°W)
Time: 00:35:05
(UTC-05:00)

CZ-3 Stage 3 - Visible Passes

Search period start: 02 July 2016 00:00
Search period end: 12 July 2016 00:00
Orbit: 449 x 34755 km, 30.5° (Epoch: 01 July)

Date Brightness Start Highest point End Pass type
(mag) Time Alt. Az. Time Alt. Az. Time Alt. Az.
02 Jul 4.4 00:25:43 10° W 00:51:43 36° SSW 00:52:55 34° S visible
02 Jul 6.0 14:14:18 10° S 21:06:10 48° S 21:21:50 10° ESE visible
05 Jul 4.4 00:16:44 10° W 00:43:11 36° SSW 00:44:25 34° S visible
08 Jul 4.5 00:07:44 10° W 00:34:39 36° SSW 00:35:55 34° S visible
10 Jul 4.5 23:58:42 10° W 00:26:05 36° SSW 00:27:25 34° SSW visible
